EN

Hourly Weather Kyzylzharma

Today, 28 July, Wednesday

Time Temperature Precipitation Wind Pressure Humidity
00:00 +28°C° 0 mm 4 mps 745 mmHg 23%
01:00 +27°C° 0 mm 4 mps 744 mmHg 23%
02:00 +26°C° 0 mm 4 mps 744 mmHg 23%
03:00 +26°C° 0 mm 4 mps 744 mmHg 23%
04:00 +25°C° 0 mm 4 mps 744 mmHg 23%
05:00 +26°C° 0 mm 4 mps 744 mmHg 22%
06:00 +28°C° 0 mm 4 mps 744 mmHg 21%
07:00 +29°C° 0 mm 4 mps 744 mmHg 20%
08:00 +32°C° 0 mm 4 mps 744 mmHg 18%
09:00 +33°C° 0 mm 4 mps 744 mmHg 17%
10:00 +34°C° 0 mm 4 mps 744 mmHg 15%
11:00 +35°C° 0 mm 4 mps 744 mmHg 14%
12:00 +36°C° 0 mm 4 mps 743 mmHg 13%
13:00 +36°C° 0 mm 4 mps 743 mmHg 12%
14:00 +36°C° 0 mm 4 mps 743 mmHg 12%
15:00 +37°C° 0 mm 4 mps 742 mmHg 11%
16:00 +36°C° 0 mm 4 mps 742 mmHg 11%
17:00 +35°C° 0 mm 4 mps 742 mmHg 12%
18:00 +34°C° 0 mm 4 mps 742 mmHg 14%
19:00 +32°C° 0 mm 4 mps 742 mmHg 15%
20:00 +30°C° 0 mm 4 mps 742 mmHg 16%
21:00 +30°C° 0 mm 5 mps 742 mmHg 16%
22:00 +29°C° 0 mm 5 mps 742 mmHg 17%
23:00 +29°C° 0 mm 5 mps 742 mmHg 17%

Tomorrow, 29 July, Thursday

Time Temperature Precipitation Wind Pressure Humidity
00:00 +29°C° 0 mm 4 mps 742 mmHg 17%
01:00 +29°C° 0 mm 4 mps 741 mmHg 17%
02:00 +29°C° 0 mm 4 mps 741 mmHg 17%
03:00 +29°C° 0 mm 5 mps 741 mmHg 17%
04:00 +29°C° 0 mm 6 mps 741 mmHg 16%
05:00 +29°C° 0 mm 7 mps 741 mmHg 17%
06:00 +29°C° 0 mm 8 mps 741 mmHg 17%
07:00 +29°C° 0 mm 9 mps 742 mmHg 18%
08:00 +31°C° 0 mm 10 mps 742 mmHg 18%
09:00 +32°C° 0 mm 11 mps 742 mmHg 18%
10:00 +32°C° 0 mm 11 mps 743 mmHg 19%
11:00 +33°C° 0 mm 10 mps 743 mmHg 18%
12:00 +34°C° 0 mm 8 mps 743 mmHg 18%
13:00 +35°C° 0 mm 7 mps 743 mmHg 17%
14:00 +35°C° 0 mm 7 mps 743 mmHg 17%
15:00 +35°C° 0 mm 7 mps 743 mmHg 16%
16:00 +35°C° 0 mm 8 mps 743 mmHg 16%
17:00 +33°C° 0 mm 7 mps 743 mmHg 17%
18:00 +32°C° 0 mm 5 mps 744 mmHg 19%
19:00 +30°C° 0 mm 4 mps 744 mmHg 21%
20:00 +29°C° 0 mm 4 mps 744 mmHg 22%
21:00 +28°C° 0 mm 4 mps 745 mmHg 24%
22:00 +27°C° 0 mm 4 mps 746 mmHg 25%
23:00 +26°C° 0 mm 3 mps 746 mmHg 26%

Day after tomorrow, 30 July, Friday

Time Temperature Precipitation Wind Pressure Humidity
00:00 +25°C° 0 mm 3 mps 746 mmHg 27%
01:00 +25°C° 0 mm 3 mps 746 mmHg 28%
02:00 +24°C° 0 mm 3 mps 747 mmHg 30%
03:00 +24°C° 0 mm 3 mps 747 mmHg 31%
04:00 +24°C° 0 mm 3 mps 747 mmHg 32%
05:00 +25°C° 0 mm 3 mps 748 mmHg 30%
06:00 +26°C° 0 mm 3 mps 748 mmHg 28%
07:00 +28°C° 0 mm 3 mps 749 mmHg 27%
08:00 +29°C° 0 mm 4 mps 749 mmHg 24%
09:00 +32°C° 0 mm 4 mps 749 mmHg 22%
10:00 +33°C° 0 mm 5 mps 749 mmHg 19%
11:00 +34°C° 0 mm 5 mps 749 mmHg 17%
12:00 +35°C° 0 mm 5 mps 749 mmHg 16%
13:00 +35°C° 0 mm 5 mps 748 mmHg 14%
14:00 +35°C° 0 mm 5 mps 748 mmHg 14%
15:00 +36°C° 0 mm 5 mps 748 mmHg 13%
16:00 +36°C° 0 mm 5 mps 748 mmHg 13%
17:00 +34°C° 0 mm 4 mps 748 mmHg 14%
18:00 +33°C° 0 mm 4 mps 748 mmHg 16%
19:00 +30°C° 0 mm 3 mps 748 mmHg 17%
20:00 +30°C° 0 mm 3 mps 748 mmHg 17%
21:00 +29°C° 0 mm 3 mps 748 mmHg 18%
22:00 +28°C° 0 mm 3 mps 748 mmHg 18%
23:00 +28°C° 0 mm 3 mps 748 mmHg 18%

31 July, Saturday

Time Temperature Precipitation Wind Pressure Humidity
00:00 +27°C° 0 mm 3 mps 747 mmHg 19%
01:00 +26°C° 0 mm 3 mps 747 mmHg 19%
02:00 +26°C° 0 mm 3 mps 747 mmHg 20%
03:00 +25°C° 0 mm 3 mps 747 mmHg 21%
04:00 +25°C° 0 mm 4 mps 747 mmHg 22%
05:00 +26°C° 0 mm 4 mps 748 mmHg 21%
06:00 +28°C° 0 mm 4 mps 748 mmHg 19%
07:00 +30°C° 0 mm 4 mps 748 mmHg 18%
08:00 +32°C° 0 mm 5 mps 748 mmHg 16%
09:00 +34°C° 0 mm 6 mps 748 mmHg 14%
10:00 +36°C° 0 mm 6 mps 748 mmHg 12%
11:00 +38°C° 0 mm 7 mps 747 mmHg 10%
12:00 +38°C° 0 mm 7 mps 747 mmHg 9%
13:00 +39°C° 0 mm 7 mps 746 mmHg 8%
14:00 +39°C° 0 mm 7 mps 746 mmHg 8%
15:00 +39°C° 0 mm 7 mps 746 mmHg 8%
16:00 +39°C° 0 mm 7 mps 746 mmHg 7%
17:00 +38°C° 0 mm 6 mps 746 mmHg 8%
18:00 +35°C° 0 mm 5 mps 746 mmHg 9%
19:00 +34°C° 0 mm 5 mps 746 mmHg 10%
20:00 +33°C° 0 mm 5 mps 746 mmHg 10%
21:00 +32°C° 0 mm 5 mps 746 mmHg 11%
22:00 +30°C° 0 mm 5 mps 746 mmHg 11%
23:00 +30°C° 0 mm 5 mps 746 mmHg 12%

1 August, Sunday

Time Temperature Precipitation Wind Pressure Humidity
00:00 +29°C° 0 mm 5 mps 746 mmHg 12%
01:00 +28°C° 0 mm 5 mps 745 mmHg 13%
02:00 +28°C° 0 mm 5 mps 745 mmHg 15%
03:00 +27°C° 0 mm 5 mps 745 mmHg 17%
04:00 +26°C° 0 mm 4 mps 745 mmHg 19%
05:00 +28°C° 0 mm 5 mps 746 mmHg 18%
06:00 +30°C° 0 mm 5 mps 746 mmHg 18%
07:00 +32°C° 0 mm 5 mps 746 mmHg 17%
08:00 +34°C° 0 mm 5 mps 746 mmHg 15%
09:00 +36°C° 0 mm 5 mps 746 mmHg 14%
10:00 +39°C° 0 mm 6 mps 746 mmHg 12%
11:00 +40°C° 0 mm 6 mps 745 mmHg 11%
12:00 +41°C° 0 mm 6 mps 745 mmHg 11%
13:00 +43°C° 0 mm 7 mps 745 mmHg 10%
14:00 +43°C° 0 mm 7 mps 744 mmHg 10%
15:00 +43°C° 0 mm 7 mps 744 mmHg 10%
16:00 +43°C° 0 mm 7 mps 744 mmHg 10%
17:00 +40°C° 0 mm 6 mps 744 mmHg 11%
18:00 +39°C° 0 mm 5 mps 744 mmHg 13%
19:00 +36°C° 0 mm 4 mps 743 mmHg 14%
20:00 +35°C° 0 mm 4 mps 744 mmHg 15%
21:00 +34°C° 0 mm 5 mps 744 mmHg 17%
22:00 +34°C° 0 mm 5 mps 744 mmHg 18%
23:00 +33°C° 0 mm 5 mps 744 mmHg 19%

2 August, Monday

Time Temperature Precipitation Wind Pressure Humidity
00:00 +33°C° 0 mm 5 mps 744 mmHg 20%
01:00 +32°C° 0 mm 4 mps 743 mmHg 20%
02:00 +32°C° 0 mm 4 mps 744 mmHg 21%
03:00 +30°C° 0 mm 4 mps 744 mmHg 22%
04:00 +29°C° 0 mm 4 mps 744 mmHg 23%
05:00 +32°C° 0 mm 4 mps 744 mmHg 21%
06:00 +34°C° 0 mm 4 mps 744 mmHg 20%
07:00 +36°C° 0 mm 4 mps 744 mmHg 18%
08:00 +37°C° 0 mm 4 mps 744 mmHg 16%
09:00 +40°C° 0 mm 5 mps 744 mmHg 15%
10:00 +42°C° 0 mm 5 mps 744 mmHg 13%
11:00 +42°C° 0 mm 5 mps 744 mmHg 12%
12:00 +43°C° 0 mm 5 mps 744 mmHg 12%
13:00 +45°C° 0 mm 5 mps 743 mmHg 11%
14:00 +45°C° 0 mm 5 mps 743 mmHg 11%
15:00 +45°C° 0 mm 5 mps 743 mmHg 11%
16:00 +45°C° 0 mm 6 mps 743 mmHg 10%
17:00 +42°C° 0 mm 5 mps 743 mmHg 12%
18:00 +41°C° 0 mm 5 mps 743 mmHg 14%
19:00 +39°C° 0 mm 5 mps 743 mmHg 15%
20:00 +39°C° 0 mm 5 mps 743 mmHg 16%
21:00 +39°C° 0 mm 6 mps 743 mmHg 18%
22:00 +38°C° 0 mm 6 mps 743 mmHg 19%
23:00 +38°C° 0 mm 7 mps 743 mmHg 20%
Show more